Location: ????????
(55.0559°N, 39.1270°E)
Time: 01:45:21
(UTC+00:00)

USA 238 - Pass Details

Date: 15 November 2025
Orbit: 887 x 1324 km, 63.4° (Epoch: 24 November)

Event Time Altitude Azimuth Distance (km) Brightness Sun altitude
Exits shadow 02:03:34 33° 318° (NW) 1,728 4.4 -24.3°
Maximum altitude 02:05:54 43° 1° (N) 1,514 4.4 -23.9°
Drops below altitude 10° 02:12:58 10° 72° (ENE) 3,132 7.1 -22.9°
Sets 02:16:02 0° 79° (E) 4,158 8.2 -22.5°
